Regional Weather Roundup
Issued by NWS

Home | Current Version | Previous Version | Graphics & Text | Print | Product List | Glossary Off
Versions: 1 2 3 4 5 6 7 8 9 10 11 12 13 14 15 16 17 18 19 20 21 22 23 24 25 26 27 28 29 30 31 32 33 34 35 36 37 38 39 40 41 42 43 44 45 46 47 48 49 50

000
ASUS44 KMEG 252110
RWRTN
TENNESSEE HOURLY STATE WEATHER ROUNDUP
NATIONAL WEATHER SERVICE MEMPHIS TN
300 PM CST THU DEC 25 2014

TNZ002-004-019-021-049-052-054-088>092-252200-
WEST TENNESSEE

CITY           SKY/WX    TMP DP  RH WIND       PRES   REMARKS
MEMPHIS INTL   MOSUNNY   54  32  43 S17       30.13F
NWS MEMPHIS      N/A     55 N/A N/A MISG        N/A
JACKSON        SUNNY     53  32  44 SW13      30.16R
DYERSBURG      SUNNY    N/A N/A N/A S8G17     30.14S
UNION CITY     SUNNY     48  36  61 S10       30.12S
PARIS          SUNNY     48  34  57 S12       30.15R
HUNTINGDON     SUNNY     50  31  48 SW8       30.16R
LEXINGTON      SUNNY     50  34  53 S9        30.17R
SAVANNAH       SUNNY     52  36  54 S10       30.20R
$$

TNZ008-025-027-028-033-062-065-066-252200-
NORTH MIDDLE TENNESSEE

CITY           SKY/WX    TMP DP  RH WIND       PRES   REMARKS
NASHVILLE      SUNNY     49  34  56 S8        30.18R
CLARKSVILLE    SUNNY     50  33  52 SW7       30.15R
SMYRNA         SUNNY     49  35  58 SW8       30.20R
COOKEVILLE     SUNNY     46  36  66 SW7       30.18R
CROSSVILLE     SUNNY     45  32  60 VRB3      30.16R
$$

TNZ061-075-076-078-094-096-097-252200-
SOUTH MIDDLE TENNESSEE

CITY           SKY/WX    TMP DP  RH WIND       PRES   REMARKS
FAYETTEVILLE   SUNNY     46  34  61 MISG      30.21R
TULLAHOMA      SUNNY     46  34  61 S8        30.19R
WINCHESTER     SUNNY     48  36  61 SW5       30.20R
MCMINNVILLE    SUNNY     48  36  61 CALM      30.18R
COLUMBIA       SUNNY     50  37  62 SW10      30.17R
SHELBYVILLE    SUNNY     50  37  62 S6        30.20R
$$

TNZ017-018-042-046-047-252200-
NORTHEAST TENNESSEE

CITY           SKY/WX    TMP DP  RH WIND       PRES   REMARKS
TRI CITIES     MOSUNNY   46  30  53 CALM      30.15F
ELIZABETHTON   CLEAR     45  28  53 W9        30.16R
$$

TNZ012-013-036-069-073-074-252200-
CENTRAL EAST TENNESSEE

CITY           SKY/WX    TMP DP  RH WIND       PRES   REMARKS
KNOXVILLE      MOSUNNY   48  34  58 CALM      30.18R
OAK RIDGE      SUNNY     49  33  54 VRB3      30.19R
GATLINBURG     CLEAR     48  30  49 CALM      30.17R
MORRISTOWN     CLEAR     46  34  61 CALM      30.17R
$$

TNZ083-085-099-252200-
SOUTHEAST TENNESSEE

CITY           SKY/WX    TMP DP  RH WIND       PRES   REMARKS
CHATTANOOGA    MOSUNNY   50  33  52 CALM      30.19S
$$

SKY/WX REPORTED AS FAIR MEANS FEW OR NO CLOUDS BELOW
12 THOUSAND FEET.




USA.gov is the U.S. government's official web portal to all federal, state and local government web resources and services.